When you browse on this site, cookies collect data to enhance your experience and personalize the content and advertising you see.
Visit our Privacy Policy to learn more. By continuing to use the site, you agree to this use of cookies and data.
  • In Latvia
  • List of Countries
  • For 7 days
  • Water Temperature
  • Satellite Maps
  • Weather Map
  • Weather Widgets
  • user-avatar
    Login

    Hourly Weather Yulara

    Today, 19 January, Saturday

    Time Temperature Precipitation Wind Pressure Humidity
    00:00 +29°C° 0.3 mm 9 mps 717 mmHg 50%
    01:00 +29°C° 0 mm 9 mps 717 mmHg 50%
    02:00 +29°C° 0 mm 8 mps 716 mmHg 51%
    03:00 +29°C° 0 mm 7 mps 717 mmHg 50%
    04:00 +29°C° 0 mm 7 mps 717 mmHg 50%
    05:00 +29°C° 0 mm 7 mps 717 mmHg 50%
    06:00 +29°C° 0 mm 7 mps 717 mmHg 51%
    07:00 +31°C° 0 mm 8 mps 717 mmHg 47%
    08:00 +32°C° 0 mm 9 mps 718 mmHg 43%
    09:00 +34°C° 0 mm 10 mps 718 mmHg 37%
    10:00 +37°C° 0 mm 10 mps 718 mmHg 32%
    11:00 +39°C° 0 mm 9 mps 718 mmHg 28%
    12:00 +41°C° 0 mm 8 mps 717 mmHg 23%
    13:00 +43°C° 0 mm 7 mps 717 mmHg 21%
    14:00 +44°C° 0 mm 6 mps 716 mmHg 19%
    15:00 +44°C° 0 mm 6 mps 716 mmHg 21%
    16:00 +42°C° 0 mm 6 mps 716 mmHg 21%
    17:00 +43°C° 0 mm 7 mps 716 mmHg 21%
    18:00 +43°C° 0 mm 7 mps 716 mmHg 21%
    19:00 +41°C° 0 mm 7 mps 716 mmHg 22%
    20:00 +40°C° 0 mm 8 mps 716 mmHg 23%
    21:00 +39°C° 0 mm 10 mps 717 mmHg 23%
    22:00 +38°C° 0.2 mm 8 mps 717 mmHg 26%
    23:00 +36°C° 0.2 mm 7 mps 717 mmHg 30%

    Tomorrow, 20 January, Sunday

    Time Temperature Precipitation Wind Pressure Humidity
    00:00 +35°C° 0.2 mm 6 mps 717 mmHg 33%
    01:00 +34°C° 0 mm 6 mps 717 mmHg 32%
    02:00 +34°C° 0 mm 6 mps 717 mmHg 31%
    03:00 +34°C° 0 mm 7 mps 717 mmHg 30%
    04:00 +33°C° 0 mm 7 mps 717 mmHg 31%
    05:00 +32°C° 0 mm 7 mps 717 mmHg 31%
    06:00 +32°C° 0 mm 7 mps 717 mmHg 32%
    07:00 +34°C° 0 mm 8 mps 717 mmHg 29%
    08:00 +37°C° 0 mm 8 mps 718 mmHg 26%
    09:00 +38°C° 0 mm 9 mps 718 mmHg 23%
    10:00 +40°C° 0 mm 8 mps 718 mmHg 20%
    11:00 +44°C° 0 mm 7 mps 717 mmHg 16%
    12:00 +46°C° 0 mm 7 mps 717 mmHg 13%
    13:00 +46°C° 0 mm 7 mps 716 mmHg 12%
    14:00 +47°C° 0 mm 6 mps 716 mmHg 11%
    15:00 +48°C° 0 mm 6 mps 715 mmHg 9%
    16:00 +47°C° 0 mm 6 mps 715 mmHg 9%
    17:00 +47°C° 0 mm 6 mps 715 mmHg 9%
    18:00 +47°C° 0 mm 6 mps 714 mmHg 9%
    19:00 +45°C° 0 mm 6 mps 715 mmHg 10%
    20:00 +44°C° 0 mm 6 mps 715 mmHg 12%
    21:00 +41°C° 0 mm 6 mps 716 mmHg 13%
    22:00 +40°C° 0 mm 8 mps 716 mmHg 16%
    23:00 +39°C° 0 mm 10 mps 716 mmHg 18%

    Day after tomorrow, 21 January, Monday

    Time Temperature Precipitation Wind Pressure Humidity
    00:00 +38°C° 0 mm 11 mps 716 mmHg 20%
    01:00 +38°C° 0 mm 11 mps 716 mmHg 22%
    02:00 +37°C° 0 mm 11 mps 715 mmHg 23%
    03:00 +36°C° 0 mm 11 mps 715 mmHg 24%
    04:00 +36°C° 0 mm 10 mps 715 mmHg 24%
    05:00 +34°C° 0 mm 9 mps 715 mmHg 24%
    06:00 +34°C° 0 mm 8 mps 716 mmHg 24%
    07:00 +37°C° 0 mm 9 mps 716 mmHg 21%
    08:00 +39°C° 0 mm 10 mps 716 mmHg 18%
    09:00 +42°C° 0 mm 11 mps 716 mmHg 16%
    10:00 +44°C° 0 mm 9 mps 716 mmHg 14%
    11:00 +45°C° 0 mm 7 mps 716 mmHg 13%
    12:00 +46°C° 0 mm 6 mps 715 mmHg 11%
    13:00 +46°C° 0 mm 5 mps 715 mmHg 11%
    14:00 +47°C° 0 mm 5 mps 714 mmHg 11%
    15:00 +47°C° 0 mm 5 mps 713 mmHg 10%
    16:00 +46°C° 0 mm 5 mps 713 mmHg 11%
    17:00 +46°C° 0 mm 5 mps 713 mmHg 11%
    18:00 +46°C° 0 mm 5 mps 713 mmHg 11%
    19:00 +45°C° 0 mm 5 mps 714 mmHg 12%
    20:00 +43°C° 0 mm 5 mps 714 mmHg 12%
    21:00 +42°C° 0 mm 6 mps 715 mmHg 13%
    22:00 +41°C° 0 mm 5 mps 715 mmHg 13%
    23:00 +40°C° 0 mm 5 mps 715 mmHg 14%

    22 January, Tuesday

    Time Temperature Precipitation Wind Pressure Humidity
    00:00 +40°C° 0 mm 5 mps 715 mmHg 14%
    01:00 +39°C° 0 mm 5 mps 715 mmHg 16%
    02:00 +37°C° 0 mm 5 mps 714 mmHg 18%
    03:00 +36°C° 0 mm 5 mps 714 mmHg 20%
    04:00 +36°C° 0 mm 5 mps 714 mmHg 20%
    05:00 +35°C° 0 mm 4 mps 714 mmHg 20%
    06:00 +34°C° 0 mm 4 mps 714 mmHg 20%
    07:00 +36°C° 0 mm 4 mps 715 mmHg 18%
    08:00 +38°C° 0 mm 4 mps 715 mmHg 16%
    09:00 +41°C° 0 mm 5 mps 716 mmHg 15%
    10:00 +44°C° 0 mm 6 mps 715 mmHg 13%
    11:00 +45°C° 0 mm 7 mps 715 mmHg 12%
    12:00 +48°C° 0 mm 8 mps 715 mmHg 11%
    13:00 +46°C° 0 mm 7 mps 714 mmHg 11%
    14:00 +46°C° 0 mm 6 mps 713 mmHg 12%
    15:00 +45°C° 0 mm 6 mps 713 mmHg 12%
    16:00 +45°C° 0 mm 5 mps 713 mmHg 13%
    17:00 +43°C° 0 mm 5 mps 713 mmHg 14%
    18:00 +43°C° 0 mm 5 mps 713 mmHg 16%
    19:00 +41°C° 0 mm 4 mps 713 mmHg 19%
    20:00 +40°C° 0 mm 4 mps 714 mmHg 22%
    21:00 +37°C° 0 mm 3 mps 714 mmHg 25%
    22:00 +36°C° 0 mm 3 mps 714 mmHg 28%
    23:00 +36°C° 0 mm 3 mps 714 mmHg 31%

    23 January, Wednesday

    Time Temperature Precipitation Wind Pressure Humidity
    00:00 +35°C° 0 mm 2 mps 714 mmHg 34%
    01:00 +35°C° 0 mm 2 mps 713 mmHg 35%
    02:00 +34°C° 0 mm 1 mps 713 mmHg 36%
    03:00 +31°C° 0 mm 0 mps 713 mmHg 37%
    04:00 +33°C° 0 mm 1 mps 713 mmHg 37%
    05:00 +32°C° 0 mm 1 mps 713 mmHg 38%
    06:00 +31°C° 0 mm 1 mps 713 mmHg 39%
    07:00 +35°C° 0 mm 3 mps 714 mmHg 32%
    08:00 +39°C° 0 mm 5 mps 714 mmHg 26%
    09:00 +43°C° 0 mm 7 mps 715 mmHg 20%
    10:00 +44°C° 0 mm 7 mps 714 mmHg 18%
    11:00 +45°C° 0 mm 7 mps 714 mmHg 16%
    12:00 +47°C° 0 mm 6 mps 714 mmHg 13%
    13:00 +46°C° 0 mm 6 mps 713 mmHg 13%
    14:00 +46°C° 0 mm 6 mps 712 mmHg 13%
    15:00 +46°C° 0 mm 6 mps 712 mmHg 13%
    16:00 +46°C° 0 mm 5 mps 712 mmHg 13%
    17:00 +45°C° 0 mm 5 mps 712 mmHg 14%
    18:00 +44°C° 0 mm 4 mps 712 mmHg 14%
    19:00 +43°C° 0 mm 4 mps 712 mmHg 15%
    20:00 +42°C° 0 mm 3 mps 712 mmHg 16%
    21:00 +40°C° 0 mm 3 mps 713 mmHg 17%
    22:00 +39°C° 0 mm 3 mps 713 mmHg 20%
    23:00 +38°C° 0 mm 3 mps 713 mmHg 23%

    24 January, Thursday

    Time Temperature Precipitation Wind Pressure Humidity
    00:00 +36°C° 0 mm 3 mps 712 mmHg 26%
    01:00 +36°C° 0 mm 3 mps 712 mmHg 26%
    02:00 +36°C° 0 mm 2 mps 712 mmHg 26%
    03:00 +35°C° 0 mm 2 mps 711 mmHg 27%
    04:00 +34°C° 0 mm 2 mps 712 mmHg 27%
    05:00 +33°C° 0 mm 1 mps 712 mmHg 28%
    06:00 +32°C° 0 mm 1 mps 712 mmHg 29%
    07:00 +34°C° 0 mm 1 mps 712 mmHg 26%
    08:00 +38°C° 0 mm 2 mps 713 mmHg 23%
    09:00 +40°C° 0 mm 2 mps 713 mmHg 19%
    10:00 +43°C° 0 mm 3 mps 713 mmHg 17%
    11:00 +44°C° 0 mm 3 mps 712 mmHg 15%
    12:00 +45°C° 0 mm 4 mps 712 mmHg 13%
    13:00 +47°C° 0 mm 4 mps 711 mmHg 12%
    14:00 +46°C° 0 mm 3 mps 711 mmHg 12%
    15:00 +46°C° 0 mm 3 mps 710 mmHg 11%
    16:00 +46°C° 0 mm 3 mps 710 mmHg 12%
    17:00 +45°C° 0 mm 3 mps 710 mmHg 12%
    18:00 +44°C° 0 mm 3 mps 711 mmHg 13%
    19:00 +44°C° 0 mm 3 mps 711 mmHg 14%
    20:00 +43°C° 0 mm 3 mps 711 mmHg 14%
    21:00 +42°C° 0 mm 4 mps 712 mmHg 15%
    22:00 +41°C° 0 mm 4 mps 712 mmHg 16%
    23:00 +41°C° 0 mm 5 mps 712 mmHg 18%
    Show more